User: anonymous   Login
Location: Caribou
(46.8667°N, 68.0167°W)
Time: 00:28:09
(UTC-04:00)
Language:

SL-08 RB Rocket - Orbit

View from above orbital plane
View from above orbital plane
View from above satellite
View from above satellite

Ground track
Ground track

The orbit data is extracted from the following two-line orbital elements,

1 26387U 00033D   15088.22936705  .00000971  00000-0  17795-3 0  9997
2 26387 098.0700 157.4134 0027319 033.6890 002.2892 14.67784447788893
Epoch (UTC): 29 March 2015 05:30:17
Eccentricity: 0.0027319
inclination: 98.0700°
perigee height: 649 km
apogee height: 687 km
right ascension of ascending node: 157.4134°
argument of perigee: 33.6890°
revolutions per day: 14.67784447
mean anomaly at epoch: 2.2892°
orbit number at epoch: 78889

The dashed part of the orbit path shows where the satellite is in the earth's shadow,  

DLR